This demonstration page uses our WeatherBlox Daily Observations layout. Learn more.

Left ArrowRight Arrow

Hourly Observations for December 17, 2021

Temp ( °F °C ) Dew Point ( °F °C ) Humidity (%) Winds ( mph kmh ) Pressure ( in mb ) Visibility ( mi km ) Precip ( " mm )
12:51 am 00:51 Clear 35 1.7 28 -2.2 76 76 Calm 29.93 1013 10 16 0.00 0.00
1:51 am 01:51 Clear 38 3.3 31 -0.6 76 76 E 5 7 29.91 1013 10 16 0.00 0.00
2:51 am 02:51 Clear 34 1.1 30 -1.1 85 85 E 7 11 29.92 1013 10 16 0.00 0.00
3:51 am 03:51 Clear 32 0 29 -1.7 88 88 Calm 29.93 1013 10 16 0.00 0.00
4:51 am 04:51 Clear 29 -1.7 27 -2.8 92 92 Calm 29.93 1014 10 16 0.00 0.00
5:51 am 05:51 Clear 32 0 29 -1.7 88 88 E 5 7 29.95 1014 10 16 0.00 0.00
6:51 am 06:51 Clear 28 -2.2 26 -3.3 92 92 E 3 6 29.98 1015 10 16 0.00 0.00
7:51 am 07:51 Sunny 32 0 28 -2.2 85 85 Calm 30.00 1016 10 16 0.00 0.00
8:51 am 08:51 Sunny 41 5 34 1.1 76 76 Calm 30.01 1016 10 16 0.00 0.00
9:51 am 09:51 Sunny 44 6.7 34 1.1 68 68 Calm 30.02 1017 10 16 0.00 0.00
10:51 am 10:51 Sunny 48 8.9 35 1.7 61 61 WNW 3 6 30.01 1016 10 16 0.00 0.00
11:51 am 11:51 Sunny 54 12.2 33 0.6 45 45 WNW 6 9 29.98 1015 10 16 0.00 0.00
12:51 pm 12:51 Sunny 55 12.8 31 -0.6 40 40 WNW 10 17 29.95 1014 10 16 0.00 0.00
1:51 pm 13:51 Sunny 56 13.3 29 -1.7 36 36 W 8 13 29.93 1014 10 16 0.00 0.00
2:51 pm 14:51 Sunny 57 13.9 27 -2.8 32 32 W 12 19 29.93 1013 10 16 0.00 0.00
3:51 pm 15:51 Sunny 58 14.4 25 -3.9 28 28 WNW 16 26 29.93 1014 10 16 0.00 0.00
4:51 pm 16:51 Sunny 56 13.3 24 -4.4 29 29 WNW 16 26 29.96 1014 10 16 0.00 0.00
5:51 pm 17:51 Clear 52 11.1 26 -3.3 37 37 WNW 10 17 29.97 1015 10 16 0.00 0.00
6:51 pm 18:51 Clear 49 9.4 26 -3.3 41 41 WNW 9 15 30.01 1016 10 16 0.00 0.00
7:51 pm 19:51 Clear 47 8.3 27 -2.8 46 46 WNW 9 15 30.02 1017 10 16 0.00 0.00
8:51 pm 20:51 Clear 44 6.7 27 -2.8 51 51 NW 8 13 30.03 1017 10 16 0.00 0.00
9:51 pm 21:51 Clear 42 5.6 28 -2.2 58 58 WNW 10 17 30.04 1017 10 16 0.00 0.00
10:51 pm 22:51 Clear 38 3.3 26 -3.3 62 62 WNW 8 13 30.05 1018 10 16 0.00 0.00
11:51 pm 23:51 Clear 38 3.3 24 -4.4 57 57 N 7 11 30.04 1017 10 16 0.00 0.00

Powered by AerisWeather